Location: B�di�
(14.6834°N, 3.1047°W)
Time: 15:00:22
(UTC+00:00)

Cosmos 1269 Rocket - Pass Details

Date: 24 January 2020
Orbit: 773 x 779 km, 74.1° (Epoch: 22 February)

Event Time Altitude Azimuth Distance (km) Brightness Sun altitude
Rises 18:32:13 0° 348° (NNW) 3,242 7.2 -6.6°
Reaches altitude 10° 18:34:35 10° 349° (N) 2,316 6.4 -7.1°
Maximum altitude 18:39:51 81° 77° (ENE) 786 4.0 -8.3°
Drops below altitude 10° 18:45:07 10° 164° (SSE) 2,317 6.5 -9.5°
Sets 18:47:30 0° 165° (SSE) 3,245 7.3 -10.1°
